Waarnemingen

Advertentie
Mijn weer
Saarbrücken-Ensheim, Duitsland (10708): temperatuur & dauwpunt: 15.01.2017 01:00:00 - 21.01.2017 01:00:00 (CET)Saarbrücken-Ensheim, Duitsland (10708): temperatuur 5cm & temperatuur -5cm: 15.01.2017 01:00:00 - 21.01.2017 01:00:00 (CET)Saarbrücken-Ensheim, Duitsland (10708): temperatuur -20cm & temperatuur -100cm: 15.01.2017 01:00:00 - 21.01.2017 01:00:00 (CET)Saarbrücken-Ensheim, Duitsland (10708): windsnelheid & windstoten: 15.01.2017 01:00:00 - 21.01.2017 01:00:00 (CET)Saarbrücken-Ensheim, Duitsland (10708): windrichting: 15.01.2017 01:00:00 - 21.01.2017 01:00:00 (CET)Saarbrücken-Ensheim, Duitsland (10708): luchtdruk: 15.01.2017 01:00:00 - 21.01.2017 01:00:00 (CET)Saarbrücken-Ensheim, Duitsland (10708): zicht: 15.01.2017 01:00:00 - 21.01.2017 01:00:00 (CET)Saarbrücken-Ensheim, Duitsland (10708): Zonneschijnduur: 15.01.2017 01:00:00 - 21.01.2017 01:00:00 (CET)Saarbrücken-Ensheim, Duitsland (10708): neerslag: 15.01.2017 01:00:00 - 21.01.2017 01:00:00 (CET)
Datum & Tijd tt [°C] td [°C] tt 5cm [°C] tt -5cm [°C] tt -20cm [°C] tt -100cm [°C] ff [km/u] ff [kn] fx [km/u] fx [kn] dd ppp [hPa] vv [km] sd [min] rr [mm]
21.01.2017 01:00:00 -5,0 -12,0 - - - - 5 3 - - NO - 10 - -
21.01.2017 00:00:00 -4,1 -11,2 -7,0 -2,3 0,2 4,3 16 9 29 16 ONO 1031,9 10 0 0,0
20.01.2017 23:00:00 -4,7 -11,5 -7,7 -2,2 0,2 4,3 14 7 23 13 O 1032,2 40 0 0,0
20.01.2017 22:00:00 -4,3 -11,4 -7,6 -2,0 0,2 4,4 13 7 28 15 ONO 1032,4 10 0 0,0
20.01.2017 21:00:00 -4,3 -11,3 -7,5 -1,8 0,2 4,4 18 10 28 15 ONO 1032,4 10 0 0,0
20.01.2017 20:00:00 -3,6 -10,6 -6,3 -1,5 0,2 4,4 16 9 31 17 ONO 1032,4 10 0 0,0
20.01.2017 19:00:00 -1,9 -10,6 -4,1 -1,2 0,2 4,4 21 11 29 16 ONO 1031,9 10 0 0,0
20.01.2017 18:00:00 -1,5 -9,6 -4,1 -1,0 0,2 4,4 18 10 24 13 ONO 1031,8 10 0 0,0
20.01.2017 17:00:00 -0,2 -9,4 -2,2 -0,8 0,2 4,4 18 10 26 14 ONO 1031,6 40 52 0,0
20.01.2017 16:00:00 1,2 -9,1 0,3 -0,7 0,2 4,4 15 8 31 17 NO 1031,4 10 60 0,0
20.01.2017 15:00:00 2,3 -8,2 2,6 -0,8 0,2 4,4 18 10 35 19 ONO 1031,1 10 60 0,0
20.01.2017 14:00:00 1,5 -8,2 1,4 -0,9 0,2 4,4 17 9 35 19 O 1031,5 40 60 0,0
20.01.2017 13:00:00 0,3 -8,2 -0,4 -1,1 0,2 4,4 20 11 31 17 O 1032,5 40 60 0,0
20.01.2017 12:00:00 -1,2 -9,3 -0,3 -1,4 0,2 4,4 21 11 34 18 O 1033,2 10 60 0,0
20.01.2017 11:00:00 -2,4 -9,8 -1,9 -1,9 0,2 4,4 16 9 31 17 O 1033,7 40 60 0,0
20.01.2017 10:00:00 -3,8 -10,0 -4,1 -2,2 0,2 4,4 16 9 27 15 ONO 1034,0 10 60 0,0
20.01.2017 09:00:00 -6,2 -10,3 -7,6 -2,3 0,3 4,4 18 10 26 14 NO 1034,1 10 18 0,0
20.01.2017 08:00:00 -6,4 -10,3 -7,9 -2,2 0,3 4,4 18 10 26 14 NO 1034,1 30 0 0,0
20.01.2017 07:00:00 -6,5 -10,0 -8,7 -2,2 0,3 4,4 14 8 21 11 NO 1034,0 30 0 0,0
20.01.2017 06:00:00 -7,1 -10,4 -9,4 -2,1 0,3 4,4 11 6 20 11 NO 1034,1 10 0 0,0
20.01.2017 05:00:00 -6,0 -9,6 -8,2 -2,0 0,3 4,4 9 5 22 12 ONO 1034,0 10 0 0,0
20.01.2017 04:00:00 -5,3 -9,2 -7,4 -1,9 0,3 4,4 13 7 22 12 ONO 1033,9 10 0 0,0
20.01.2017 03:00:00 -4,9 -9,1 -7,1 -1,8 0,3 4,4 8 4 21 11 ONO 1034,1 30 0 0,0
20.01.2017 02:00:00 -4,5 -9,2 -6,9 -1,7 0,3 4,4 14 8 28 15 ONO 1034,1 30 0 0,0
20.01.2017 01:00:00 -4,3 -9,2 -6,4 -1,7 0,4 4,4 18 10 31 17 ONO 1034,2 25 0 0,0
20.01.2017 00:00:00 -4,0 -8,8 -5,4 -1,6 0,4 4,4 21 11 35 19 NO 1034,4 10 0 0,0
19.01.2017 23:00:00 -3,7 -8,5 -5,5 -1,5 0,4 4,4 22 12 30 16 ONO 1034,7 25 0 0,0
19.01.2017 22:00:00 -3,7 -8,4 -5,3 -1,4 0,4 4,4 23 12 35 19 ONO 1035,1 20 0 0,0
19.01.2017 21:00:00 -3,5 -8,3 -5,4 -1,3 0,4 4,4 25 13 37 20 ONO 1034,8 20 0 0,0
19.01.2017 20:00:00 -3,5 -8,2 -5,0 -1,2 0,4 4,4 26 14 36 19 NO 1034,6 10 0 0,0
19.01.2017 19:00:00 -3,4 -8,2 -5,2 -1,1 0,4 4,4 21 11 34 18 NO 1034,7 10 0 0,0
19.01.2017 18:00:00 -3,0 -8,1 -4,7 -0,9 0,4 4,4 18 10 28 15 ONO 1034,7 30 0 0,0
19.01.2017 17:00:00 -2,1 -8,3 -3,3 -0,7 0,4 4,4 17 9 31 17 NO 1034,4 30 51 0,0
19.01.2017 16:00:00 -1,2 -8,3 -1,9 -0,7 0,4 4,4 21 11 32 17 NO 1034,2 30 60 0,0
19.01.2017 15:00:00 -1,1 -8,5 -0,5 -0,7 0,4 4,4 19 10 31 17 NO 1034,3 30 60 0,0
19.01.2017 14:00:00 -1,2 -8,3 -0,7 -0,8 0,4 4,4 19 10 33 18 NO 1034,6 28 60 0,0
19.01.2017 13:00:00 -2,3 -8,8 -2,3 -0,9 0,4 4,4 22 12 37 20 ONO 1035,1 10 60 0,0
19.01.2017 12:00:00 -3,1 -8,3 -1,7 -1,2 0,4 4,4 16 9 36 20 ONO 1035,6 28 60 0,0
19.01.2017 11:00:00 -4,4 -8,5 -3,5 -1,5 0,4 4,4 22 12 42 23 ONO 1035,7 10 60 0,0
19.01.2017 10:00:00 -5,6 -8,5 -5,6 -1,8 0,5 4,4 28 15 42 23 ONO 1035,7 10 60 0,0
19.01.2017 09:00:00 -6,8 -9,0 -8,0 -1,8 0,5 4,4 24 13 38 20 ONO 1036,0 18 4 0,0
19.01.2017 08:00:00 -7,2 -9,1 -8,2 -1,7 0,5 4,4 22 12 39 21 ONO 1035,7 15 0 0,0
19.01.2017 07:00:00 -7,1 -9,0 -8,1 -1,7 0,5 4,4 21 12 35 19 ONO 1035,7 18 0 0,0
19.01.2017 06:00:00 -6,8 -8,8 -7,8 -1,6 0,5 4,5 24 13 38 20 ONO 1035,5 18 0 0,0
19.01.2017 05:00:00 -6,8 -8,7 -7,8 -1,5 0,5 4,5 22 12 36 20 ONO 1035,6 10 0 0,0
19.01.2017 04:00:00 -6,9 -8,7 -7,9 -1,5 0,5 4,5 25 13 38 20 ONO 1035,7 18 0 0,0
19.01.2017 03:00:00 -6,5 -8,6 -7,6 -1,4 0,6 4,5 22 12 40 21 ONO 1035,3 18 0 0,0
19.01.2017 02:00:00 -6,4 -8,5 -7,7 -1,3 0,6 4,5 24 13 39 21 ONO 1035,5 18 0 0,0
19.01.2017 01:00:00 -6,4 -8,6 -7,5 -1,2 0,6 4,5 22 12 36 19 NO 1035,7 10 0 0,0
19.01.2017 00:00:00 -6,1 -8,6 -7,2 -1,1 0,6 4,5 23 12 36 19 ONO 1036,0 20 0 0,0
18.01.2017 23:00:00 -5,8 -8,3 -7,0 -1,0 0,6 4,5 21 11 38 21 ONO 1035,8 20 0 0,0
18.01.2017 22:00:00 -5,0 -8,0 -6,3 -1,0 0,6 4,5 21 11 35 19 ONO 1036,0 10 0 0,0
18.01.2017 21:00:00 -4,9 -7,8 -6,4 -0,9 0,6 4,5 21 11 34 18 ONO 1036,3 10 0 0,0
18.01.2017 20:00:00 -4,7 -7,6 -6,2 -0,8 0,7 4,5 21 11 35 19 ONO 1036,4 20 0 0,0
18.01.2017 19:00:00 -4,2 -7,5 -5,5 -0,7 0,7 4,5 23 13 39 21 ONO 1036,1 20 0 0,0
18.01.2017 18:00:00 -3,7 -7,5 -5,1 -0,5 0,7 4,5 22 12 40 21 ONO 1035,9 25 0 0,0
18.01.2017 17:00:00 -3,0 -7,3 -4,3 -0,4 0,7 4,5 26 14 41 22 ONO 1035,9 10 41 0,0
18.01.2017 16:00:00 -2,3 -7,3 -2,8 -0,4 0,7 4,5 24 13 40 21 NO 1035,8 10 60 0,0
18.01.2017 15:00:00 -2,1 -7,4 -1,6 -0,4 0,7 4,5 24 13 39 21 NO 1035,5 10 60 0,0
18.01.2017 14:00:00 -2,0 -7,8 -1,6 -0,4 0,7 4,5 24 13 42 23 ONO 1035,5 10 60 0,0
18.01.2017 13:00:00 -2,4 -7,7 -2,7 -0,4 0,7 4,5 28 15 40 22 ONO 1035,9 10 60 0,0
18.01.2017 12:00:00 -3,1 -7,6 -1,9 -0,6 0,7 4,5 22 12 41 22 ONO 1036,4 10 37 0,0
18.01.2017 11:00:00 -4,0 -7,5 -3,9 -0,7 0,7 4,5 24 13 44 24 ONO 1036,8 10 7 0,0
18.01.2017 10:00:00 -4,5 -7,5 -4,7 -0,7 0,7 4,5 27 15 42 23 ONO 1036,8 30 0 0,0
18.01.2017 09:00:00 -5,4 -7,8 -6,5 -0,7 0,7 4,5 26 14 40 22 ONO 1036,6 10 0 0,0
18.01.2017 08:00:00 -5,5 -8,0 -6,8 -0,6 0,7 4,5 19 10 39 21 ONO 1036,4 30 0 0,0
18.01.2017 07:00:00 -4,6 -7,6 -5,3 -0,6 0,7 4,5 22 12 42 23 ONO 1035,8 10 0 0,0
18.01.2017 06:00:00 -4,4 -7,6 -4,8 -0,5 0,7 4,5 29 15 42 23 ONO 1035,7 40 0 0,0
18.01.2017 05:00:00 -4,3 -7,4 -4,8 -0,5 0,7 4,5 24 13 42 23 ONO 1035,7 10 0 0,0
18.01.2017 04:00:00 -4,4 -7,2 -4,9 -0,5 0,8 4,5 21 11 39 21 ONO 1035,8 35 0 0,0
18.01.2017 03:00:00 -4,6 -7,2 -5,0 -0,5 0,8 4,5 21 11 36 19 ONO 1036,3 10 0 0,0
18.01.2017 02:00:00 -4,6 -7,4 -5,5 -0,4 0,8 4,5 24 13 38 21 ONO 1036,2 40 0 0,0
18.01.2017 01:00:00 -5,3 -7,8 -6,7 -0,4 0,8 4,5 21 11 42 23 ONO 1036,3 10 0 0,0
18.01.2017 00:00:00 -4,6 -7,6 -6,1 -0,3 0,8 4,5 28 15 44 24 ONO 1035,8 10 0 0,0
17.01.2017 23:00:00 -4,4 -7,5 -5,8 -0,3 0,8 4,5 24 13 40 22 ONO 1035,8 10 0 0,0
17.01.2017 22:00:00 -3,7 -7,3 -5,0 -0,2 0,8 4,5 24 13 44 24 ONO 1035,7 10 0 0,0
17.01.2017 21:00:00 -3,5 -7,1 -5,2 -0,2 0,8 4,5 22 12 37 20 ONO 1035,6 10 0 0,0
17.01.2017 20:00:00 -3,2 -6,8 -4,9 -0,2 0,8 4,5 21 11 29 16 ONO 1035,6 10 0 0,0
17.01.2017 19:00:00 -3,2 -7,3 -4,6 -0,1 0,8 4,5 18 10 35 19 NO 1035,5 10 0 0,0
17.01.2017 18:00:00 -2,8 -7,3 -3,7 -0,1 0,8 4,5 21 11 40 22 ONO 1034,9 10 0 0,0
17.01.2017 17:00:00 -2,3 -7,8 -3,6 -0,1 0,8 4,5 24 13 44 24 ONO 1034,6 40 6 0,0
17.01.2017 16:00:00 -1,7 -8,0 -1,9 -0,1 0,8 4,5 21 11 39 21 ONO 1034,5 10 21 0,0
17.01.2017 15:00:00 -1,3 -7,8 -0,5 -0,1 0,8 4,5 24 13 36 20 NO 1033,9 10 24 0,0
17.01.2017 14:00:00 -1,3 -7,8 -0,5 -0,1 0,8 4,5 20 11 37 20 ONO 1034,1 40 34 0,0
17.01.2017 13:00:00 -2,3 -7,9 -2,0 -0,1 0,8 4,5 24 13 39 21 ONO 1034,7 40 0 0,0
17.01.2017 12:00:00 -2,6 -7,5 -2,1 -0,1 0,8 4,5 21 11 44 24 ONO 1034,9 10 38 0,0
17.01.2017 11:00:00 -3,0 -7,6 -2,1 -0,1 0,8 4,5 21 12 43 23 ONO 1035,0 35 57 0,0
17.01.2017 10:00:00 -3,8 -7,2 -3,6 -0,1 0,8 4,5 26 14 42 23 ONO 1034,8 10 10 0,0
17.01.2017 09:00:00 -4,5 -7,4 -4,8 -0,1 0,8 4,5 21 11 34 18 NO 1034,8 10 0 0,0
17.01.2017 08:00:00 -4,8 -7,0 -5,1 -0,1 0,9 4,5 22 12 42 23 NO 1034,2 30 0 0,0
17.01.2017 07:00:00 -5,0 -6,8 -5,1 -0,1 0,9 4,5 29 16 45 24 ONO 1033,8 10 0 0,0
17.01.2017 06:00:00 -5,1 -6,9 -5,2 -0,1 0,9 4,5 26 14 42 23 ONO 1033,4 10 0 0,0
17.01.2017 05:00:00 -5,1 -6,4 -5,3 -0,1 0,9 4,5 21 11 29 16 ONO 1033,1 10 0 0,0
17.01.2017 04:00:00 -5,4 -6,4 -5,5 -0,1 0,9 4,5 18 10 35 19 ONO 1032,7 10 0 0,0
17.01.2017 03:00:00 -5,8 -6,5 -6,3 -0,1 0,9 4,5 19 10 29 16 NO 1032,3 15 0 0,0
17.01.2017 02:00:00 -6,1 -7,1 -7,8 -0,1 0,9 4,5 15 8 22 12 NO 1031,9 18 0 0,0
17.01.2017 01:00:00 -5,7 -7,3 -7,8 0,0 0,9 4,5 10 6 21 11 NO 1031,8 20 0 0,0
17.01.2017 00:00:00 -5,5 -7,0 -7,3 0,0 0,9 4,5 14 8 21 11 NO 1031,4 20 0 0,0
16.01.2017 23:00:00 -6,0 -7,1 -8,7 0,0 0,9 4,5 11 6 22 12 NO 1031,3 10 0 0,0
16.01.2017 22:00:00 -4,9 -6,5 -6,9 0,0 0,9 4,5 15 8 22 12 NO 1030,5 10 0 0,0
16.01.2017 21:00:00 -4,9 -6,6 -7,2 0,0 0,9 4,5 11 6 22 12 ONO 1029,8 10 0 0,0
16.01.2017 20:00:00 -3,9 -6,0 -5,5 0,0 0,9 4,5 13 7 18 10 NO 1029,1 10 0 0,0
16.01.2017 19:00:00 -4,7 -6,5 -7,8 0,0 0,9 4,5 11 6 15 8 NO 1028,7 10 0 0,0
16.01.2017 18:00:00 -3,5 -5,7 -5,7 0,0 0,9 4,5 11 6 21 11 NO 1028,0 10 0 0,0
16.01.2017 17:00:00 -2,5 -5,5 -4,7 0,0 0,9 4,5 11 6 21 11 NO 1027,3 10 34 0,0
16.01.2017 16:00:00 -1,3 -4,9 -2,7 0,0 0,9 4,5 13 7 28 15 ONO 1026,8 10 21 0,0
16.01.2017 15:00:00 -0,1 -3,9 0,9 0,0 0,9 4,5 17 9 23 13 ONO 1026,2 35 19 0,0
16.01.2017 14:00:00 -0,8 -3,5 -0,4 0,0 0,9 4,5 13 7 22 12 NO 1026,1 10 23 0,0
16.01.2017 13:00:00 -2,0 -3,0 -0,9 0,0 0,9 4,5 9 5 15 8 ONO 1026,5 10 11 0,0
16.01.2017 12:00:00 -1,8 -1,8 -1,0 0,0 0,9 4,5 7 4 11 6 ONO 1026,5 6 44 0,0
16.01.2017 11:00:00 -2,7 -2,7 -1,6 0,0 0,9 4,5 4 2 5 3 W 1026,4 5 3 0,0
16.01.2017 10:00:00 -4,8 -4,8 -4,4 0,0 0,9 4,5 2 1 4 2 NNO 1026,4 5 0 0,0
16.01.2017 09:00:00 -6,5 -6,5 -8,9 0,0 0,9 4,5 2 1 4 2 N 1026,3 4,0 0 0,0
16.01.2017 08:00:00 -7,1 -7,2 -9,9 0,0 0,9 4,5 2 1 4 2 O 1026,0 0,6 0 0,0
16.01.2017 07:00:00 -6,3 -6,3 -8,1 0,0 0,9 4,5 0 0 4 2 N 1025,3 0,2 0 0,0
16.01.2017 06:00:00 -5,3 -5,3 -6,5 0,0 0,9 4,5 2 1 4 2 ZZW 1024,8 0,2 0 0,0
16.01.2017 05:00:00 -4,5 -4,5 -5,2 0,0 0,9 4,6 4 2 5 3 - 1024,4 0,2 0 0,0
16.01.2017 04:00:00 -3,6 -3,6 -3,6 0,0 0,9 4,6 1 1 4 2 OZO 1024,2 0,2 0 0,0
16.01.2017 03:00:00 -4,1 -4,1 -5,3 0,0 0,8 4,6 4 2 4 2 ZO 1024,2 0,1 0 0,0
16.01.2017 02:00:00 -4,1 -4,1 -5,5 0,0 0,8 4,6 2 1 4 2 O 1024,0 0,4 0 0,0
16.01.2017 01:00:00 -2,9 -2,9 -6,6 0,0 0,8 4,6 2 1 5 3 ONO 1023,9 3,4 0 0,0
16.01.2017 00:00:00 -2,4 -2,4 -3,8 0,0 0,8 4,6 2 1 4 2 OZO 1024,0 2,4 0 0,0
15.01.2017 23:00:00 -2,5 -2,5 -4,0 0,0 0,8 4,6 2 1 4 2 W 1024,0 7 0 0,0
15.01.2017 22:00:00 -1,4 -1,5 -5,4 0,0 0,8 4,6 2 1 8 4 - 1023,7 10 0 0,3
15.01.2017 21:00:00 -0,8 -1,4 -1,4 0,0 0,8 4,6 8 4 11 6 WZW 1023,7 10 0 0,0
15.01.2017 20:00:00 -0,8 -1,2 -1,6 0,0 0,8 4,6 10 5 15 8 W 1023,5 20 0 0,0
15.01.2017 19:00:00 -1,6 -2,1 -4,9 0,0 0,8 4,6 9 5 21 11 W 1023,5 10 0 0,0
15.01.2017 18:00:00 -0,7 -2,8 -2,4 0,0 0,8 4,6 13 7 23 12 W 1023,1 7 0 0,0
15.01.2017 17:00:00 0,4 -3,1 -0,8 0,0 0,8 4,6 13 7 21 11 W 1022,9 40 0 0,0
15.01.2017 16:00:00 1,0 -3,0 0,4 0,0 0,8 4,6 8 4 16 9 W 1022,7 10 0 0,0
15.01.2017 15:00:00 1,3 -2,8 0,7 0,0 0,8 4,6 10 5 22 12 W 1022,5 55 7 0,0
15.01.2017 14:00:00 1,1 -3,3 1,0 0,0 0,8 4,6 15 8 24 13 W 1022,7 55 35 0,0
15.01.2017 13:00:00 1,3 -2,3 0,1 0,0 0,8 4,6 9 5 22 12 WNW 1022,5 55 25 0,0
15.01.2017 12:00:00 1,1 -1,8 2,0 0,0 0,8 4,6 13 7 19 10 WNW 1022,8 10 56 0,0
15.01.2017 11:00:00 0,5 -1,7 0,6 -0,1 0,8 4,6 9 5 15 8 W 1022,9 10 59 0,0
15.01.2017 10:00:00 -1,3 -1,4 -2,4 -0,1 0,8 4,6 10 5 13 7 W 1022,8 15 50 0,0
15.01.2017 09:00:00 -2,9 -2,9 -5,8 -0,1 0,8 4,6 9 5 16 9 W 1022,4 10 0 0,0
15.01.2017 08:00:00 -1,3 -1,5 -1,8 -0,1 0,8 4,6 8 4 13 7 WZW 1021,5 15 0 0,0
15.01.2017 07:00:00 -1,3 -1,5 -1,6 -0,1 0,8 4,6 8 4 18 10 W 1021,0 10 0 0,0
15.01.2017 06:00:00 -1,1 -1,6 -1,4 -0,1 0,8 4,6 14 8 21 11 W 1020,3 20 0 0,0
15.01.2017 05:00:00 -1,4 -1,8 -2,3 -0,1 0,8 4,6 13 7 16 9 W 1020,2 20 0 0,0
15.01.2017 04:00:00 -0,8 -1,4 -1,2 -0,1 0,8 4,6 9 5 13 7 W 1020,0 10 0 0,0
15.01.2017 03:00:00 -1,1 -1,5 -1,5 -0,1 0,8 4,6 9 5 15 8 W 1019,9 10 0 0,0
15.01.2017 02:00:00 -1,5 -1,8 -2,6 -0,1 0,8 4,6 6 3 18 10 W 1019,5 15 0 0,0
15.01.2017 01:00:00 -1,1 -1,5 -1,7 -0,1 0,8 4,6 13 7 18 10 WZW 1019,2 10 0 0,0

tt = temperatuur
td = dauwpunt
tt 5cm = temperatuur 5cm
tt -5cm = temperatuur -5cm
tt -20cm = temperatuur -20cm
tt -100cm = temperatuur -100cm
ff = windsnelheid
fx = windstoten
dd = windrichting
ppp = luchtdruk
vv = zicht
sd = Zonneschijnduur
rr = neerslag

Weerstations in de omgeving